CW9792 Weather Reports


time (UTC)temp
C
wind
direction
speed
KPH
gust
KPH
rain 1hr
cm
rain 24hr
cm
rain mn
cm
humidity
%
barometer
mb
20260903183007 35 200 0.0 1.6 0.00 0.00 0.00 35 1014.9
20260903182508 35 257 0.0 0.0 0.00 0.00 0.00 35 1014.9
20260903182005 35 176 0.0 0.0 0.00 0.00 0.00 34 1015.0
20260903181504 35 232 0.0 0.0 0.00 0.00 0.00 34 1015.0
20260903181004 35 236 0.0 0.0 0.00 0.00 0.00 34 1015.0
20260903180508 35 188 0.0 0.0 0.00 0.00 0.00 34 1015.1
20260903180012 35 211 0.0 0.0 0.00 0.00 0.00 34 1015.2
20260903175510 35 173 0.0 0.0 0.00 0.00 0.00 34 1015.2
20260903175004 35 225 0.0 0.0 0.00 0.00 0.00 34 1015.3
20260903174503 35 222 0.0 0.0 0.00 0.00 0.00 35 1015.4
20260903174006 35 223 0.0 0.0 0.00 0.00 0.00 35 1015.4
20260903173502 35 217 0.0 0.0 0.00 0.00 0.00 35 1015.4
20260903173002 35 290 0.0 0.0 0.00 0.00 0.00 36 1015.5
20260903172501 34 313 0.0 0.0 0.00 0.00 0.00 36 1015.5
20260903172002 34 294 0.0 0.0 0.00 0.00 0.00 37 1015.6
20260903171504 34 319 0.0 0.0 0.00 0.00 0.00 37 1015.6
20260903171001 35 286 0.0 0.0 0.00 0.00 0.00 38 1015.7
20260903170600 35 263 0.0 0.0 0.00 0.00 0.00 37 1015.7
20260903170105 35 198 0.0 1.6 0.00 0.00 0.00 39 1015.7
20260903165559 34 173 0.0 1.6 0.00 0.00 0.00 38 1015.7
20260903165101 34 240 0.0 0.0 0.00 0.00 0.00 39 1015.8
20260903164602 33 276 0.0 0.0 0.00 0.00 0.00 39 1015.8
20260903164059 33 313 0.0 0.0 0.00 0.00 0.00 38 1015.8
20260903163558 33 275 0.0 0.0 0.00 0.00 0.00 40 1015.9
20260903163058 34 281 0.0 0.0 0.00 0.00 0.00 38 1016.0
20260903162559 33 298 0.0 0.0 0.00 0.00 0.00 38 1016.0
20260903162056 34 300 0.0 0.0 0.00 0.00 0.00 39 1016.0
20260903161556 34 277 0.0 1.6 0.00 0.00 0.00 39 1016.1
20260903161054 34 265 0.0 1.6 0.00 0.00 0.00 39 1016.1
20260903160554 33 279 0.0 0.0 0.00 0.00 0.00 41 1016.1
20260903160055 33 278 0.0 1.6 0.00 0.00 0.00 40 1016.1
20260903155553 33 229 0.0 1.6 0.00 0.00 0.00 41 1016.1
20260903155052 33 300 0.0 0.0 0.00 0.00 0.00 41 1016.1
20260903154558 33 283 0.0 0.0 0.00 0.00 0.00 43 1016.2
20260903154051 32 267 0.0 0.0 0.00 0.00 0.00 42 1016.3
20260903153550 32 280 0.0 0.0 0.00 0.00 0.00 41 1016.2
20260903153106 32 286 0.0 0.0 0.00 0.00 0.00 43 1016.2
20260903152549 32 290 0.0 0.0 0.00 0.00 0.00 44 1016.2
20260903152051 32 288 0.0 0.0 0.00 0.00 0.00 43 1016.2
20260903151548 32 282 0.0 0.0 0.00 0.00 0.00 43 1016.2
20260903151048 32 272 0.0 0.0 0.00 0.00 0.00 44 1016.2
20260903150547 32 242 0.0 0.0 0.00 0.00 0.00 43 1016.2
20260903150101 32 268 0.0 0.0 0.00 0.00 0.00 43 1016.3
20260903145548 32 269 0.0 0.0 0.00 0.00 0.00 43 1016.2
20260903145046 32 269 0.0 0.0 0.00 0.00 0.00 45 1016.2
20260903144546 32 200 0.0 0.0 0.00 0.00 0.00 46 1016.2
20260903144049 32 233 0.0 0.0 0.00 0.00 0.00 46 1016.1
20260903143546 32 194 0.0 0.0 0.00 0.00 0.00 46 1016.2
20260903143055 31 172 0.0 0.0 0.00 0.00 0.00 48 1016.2
20260903142543 31 172 0.0 0.0 0.00 0.00 0.00 47 1016.2
20260903142041 31 171 0.0 0.0 0.00 0.00 0.00 48 1016.2
20260903141544 31 171 0.0 0.0 0.00 0.00 0.00 50 1016.2
20260903141038 30 171 0.0 0.0 0.00 0.00 0.00 50 1016.3
20260903140537 30 171 0.0 0.0 0.00 0.00 0.00 51 1016.3
20260903140037 30 171 0.0 0.0 0.00 0.00 0.00 54 1016.3
20260903135534 29 171 0.0 0.0 0.00 0.00 0.00 54 1016.3
20260903135033 29 171 0.0 0.0 0.00 0.00 0.00 55 1016.4
20260903134532 28 171 0.0 0.0 0.00 0.00 0.00 55 1016.4
20260903134029 28 171 0.0 0.0 0.00 0.00 0.00 55 1016.5
20260903133528 28 192 0.0 0.0 0.00 0.00 0.00 56 1016.5
20260903133028 27 192 0.0 0.0 0.00 0.00 0.00 56 1016.5
20260903132526 27 192 0.0 0.0 0.00 0.00 0.00 56 1016.5
20260903132024 27 192 0.0 0.0 0.00 0.00 0.00 56 1016.5
20260903131523 26 192 0.0 0.0 0.00 0.00 0.00 56 1016.5
20260903131025 26 192 0.0 0.0 0.00 0.00 0.00 57 1016.6
20260903130523 26 196 0.0 0.0 0.00 0.00 0.00 58 1016.6
20260903130019 25 196 0.0 0.0 0.00 0.00 0.00 59 1016.7
20260903125518 25 196 0.0 0.0 0.00 0.00 0.00 60 1016.8
20260903125021 24 196 0.0 0.0 0.00 0.00 0.00 61 1016.8
20260903124518 23 196 0.0 0.0 0.00 0.00 0.00 62 1016.8
20260903124020 23 196 0.0 0.0 0.00 0.00 0.00 63 1016.7
20260903123517 23 196 0.0 0.0 0.00 0.00 0.00 64 1016.7
20260903123017 23 196 0.0 0.0 0.00 0.00 0.00 65 1016.7
20260903122516 22 196 0.0 0.0 0.00 0.00 0.00 65 1016.8
20260903122015 22 196 0.0 0.0 0.00 0.00 0.00 65 1016.8
20260903121516 22 196 0.0 0.0 0.00 0.00 0.00 66 1016.8
20260903121015 22 196 0.0 0.0 0.00 0.00 0.00 65 1016.7
20260903120515 22 196 0.0 0.0 0.00 0.00 0.00 65 1016.7
20260903120015 22 197 0.0 0.0 0.00 0.00 0.00 66 1016.7
20260903115514 22 197 0.0 0.0 0.00 0.00 0.00 66 1016.7
20260903115014 21 197 0.0 0.0 0.00 0.00 0.00 66 1016.7
20260903114514 21 197 0.0 0.0 0.00 0.00 0.00 66 1016.6
20260903114013 21 197 0.0 0.0 0.00 0.00 0.00 66 1016.6
20260903113512 21 197 0.0 0.0 0.00 0.00 0.00 66 1016.5
20260903113012 21 197 0.0 0.0 0.00 0.00 0.00 66 1016.4
20260903112512 21 197 0.0 0.0 0.00 0.00 0.00 66 1016.4
20260903112011 21 197 0.0 0.0 0.00 0.00 0.00 66 1016.3
20260903111514 21 197 0.0 0.0 0.00 0.00 0.00 65 1016.3
20260903111010 21 197 0.0 0.0 0.00 0.00 0.00 65 1016.2
20260903110511 21 197 0.0 0.0 0.00 0.00 0.00 65 1016.2
20260903110010 21 197 0.0 0.0 0.00 0.00 0.00 65 1016.2
20260903105509 21 197 0.0 0.0 0.00 0.00 0.00 65 1016.2
20260903105009 21 197 0.0 0.0 0.00 0.00 0.00 65 1016.2
20260903104514 21 197 0.0 0.0 0.00 0.00 0.00 65 1016.1
20260903104007 21 197 0.0 0.0 0.00 0.00 0.00 64 1016.1
20260903103508 22 197 0.0 0.0 0.00 0.00 0.00 64 1016.1
20260903103007 22 197 0.0 0.0 0.00 0.00 0.00 64 1016.1
20260903102506 22 197 0.0 0.0 0.00 0.00 0.00 64 1016.0
20260903102006 22 197 0.0 0.0 0.00 0.00 0.00 64 1016.1
20260903101505 22 197 0.0 0.0 0.00 0.00 0.00 64 1016.0
20260903101004 22 197 0.0 0.0 0.00 0.00 0.00 64 1016.1
20260903100504 22 197 0.0 0.0 0.00 0.00 0.00 64 1016.0
20260903100004 22 197 0.0 0.0 0.00 0.00 0.00 64 1015.9
20260903095503 22 197 0.0 0.0 0.00 0.00 0.00 64 1015.9
20260903095004 22 197 0.0 0.0 0.00 0.00 0.00 64 1015.9
20260903094503 22 197 0.0 0.0 0.00 0.00 0.00 64 1015.9
20260903094004 22 197 0.0 0.0 0.00 0.00 0.00 64 1015.9
20260903093503 22 197 0.0 0.0 0.00 0.00 0.00 64 1015.9
20260903093005 22 197 0.0 0.0 0.00 0.00 0.00 64 1015.8
20260903092501 22 197 0.0 0.0 0.00 0.00 0.00 64 1015.8
20260903092001 22 197 0.0 0.0 0.00 0.00 0.00 64 1015.8
20260903091701 22 197 0.0 0.0 0.00 0.00 0.00 64 1015.8
20260903091100 22 197 0.0 0.0 0.00 0.00 0.00 64 1015.7
20260903090602 22 197 0.0 0.0 0.00 0.00 0.00 64 1015.8
20260903090059 22 197 0.0 0.0 0.00 0.00 0.00 64 1015.7
20260903085559 22 197 0.0 0.0 0.00 0.00 0.00 64 1015.8
20260903085058 22 197 0.0 0.0 0.00 0.00 0.00 64 1015.7
20260903084559 22 197 0.0 0.0 0.00 0.00 0.00 63 1015.7
20260903084058 22 197 0.0 0.0 0.00 0.00 0.00 63 1015.7
20260903083600 22 197 0.0 0.0 0.00 0.00 0.00 63 1015.7
20260903083103 22 197 0.0 0.0 0.00 0.00 0.00 63 1015.7
20260903082555 22 197 0.0 0.0 0.00 0.00 0.00 63 1015.7
20260903082057 22 197 0.0 0.0 0.00 0.00 0.00 63 1015.6
20260903081613 22 197 0.0 0.0 0.00 0.00 0.00 63 1015.6
20260903081053 23 197 0.0 0.0 0.00 0.00 0.00 63 1015.6
20260903080552 23 197 0.0 0.0 0.00 0.00 0.00 62 1015.5
20260903080052 23 197 0.0 0.0 0.00 0.00 0.00 62 1015.5
20260903075552 23 197 0.0 0.0 0.00 0.00 0.00 62 1015.5
20260903075051 23 197 0.0 0.0 0.00 0.00 0.00 62 1015.5
20260903074554 23 197 0.0 0.0 0.00 0.00 0.00 62 1015.5
20260903074050 23 197 0.0 0.0 0.00 0.00 0.00 62 1015.5
20260903073550 23 197 0.0 0.0 0.00 0.00 0.00 62 1015.4
20260903073049 23 197 0.0 0.0 0.00 0.00 0.00 62 1015.4
20260903072548 23 197 0.0 0.0 0.00 0.00 0.00 61 1015.4
20260903072048 23 197 0.0 0.0 0.00 0.00 0.00 61 1015.4
20260903071553 23 197 0.0 0.0 0.00 0.00 0.00 61 1015.4
20260903071046 23 197 0.0 0.0 0.00 0.00 0.00 61 1015.3
20260903070547 23 197 0.0 0.0 0.00 0.00 0.00 61 1015.3
20260903070046 23 197 0.0 0.0 0.00 0.00 0.00 60 1015.2
20260903065546 23 197 0.0 0.0 0.00 0.00 0.00 61 1015.2
20260903065045 23 197 0.0 0.0 0.00 0.00 0.00 61 1015.2
20260903064550 23 197 0.0 0.0 0.00 0.00 0.00 61 1015.2
20260903064045 23 197 0.0 0.0 0.00 0.00 0.00 61 1015.1
20260903063545 24 197 0.0 0.0 0.00 0.00 0.00 61 1015.2
20260903063049 24 197 0.0 0.0 0.00 0.00 0.00 61 1015.2
20260903062544 24 197 0.0 0.0 0.00 0.00 0.00 61 1015.3
20260903062044 23 197 0.0 0.0 0.00 0.00 0.00 61 1015.3
20260903061543 24 197 0.0 0.0 0.00 0.00 0.00 61 1015.3
20260903061042 24 197 0.0 0.0 0.00 0.00 0.00 61 1015.3
20260903060542 24 197 0.0 0.0 0.00 0.00 0.00 61 1015.2
20260903060044 24 197 0.0 0.0 0.00 0.00 0.00 61 1015.2
20260903055544 24 197 0.0 0.0 0.00 0.00 0.00 61 1015.2
20260903055041 24 198 0.0 0.0 0.00 0.00 0.00 61 1015.1
20260903054541 24 198 0.0 0.0 0.00 0.00 0.00 60 1015.1
20260903054041 24 198 0.0 0.0 0.00 0.00 0.00 60 1015.1
20260903053540 24 198 0.0 0.0 0.00 0.00 0.00 60 1015.1
20260903053041 24 198 0.0 0.0 0.00 0.00 0.00 60 1015.1
20260903052539 24 198 0.0 0.0 0.00 0.00 0.00 61 1015.2
20260903052040 24 198 0.0 0.0 0.00 0.00 0.00 61 1015.1
20260903051538 24 198 0.0 0.0 0.00 0.00 0.00 60 1015.1
20260903051041 24 198 0.0 0.0 0.00 0.00 0.00 61 1015.2
20260903050538 25 198 0.0 0.0 0.00 0.00 0.00 61 1015.2
20260903050045 25 198 0.0 0.0 0.00 0.00 0.00 61 1015.1
20260903045537 25 198 0.0 0.0 0.00 0.00 0.00 61 1015.2
20260903045036 25 198 0.0 0.0 0.00 0.00 0.00 61 1015.2
20260903044544 25 198 0.0 0.0 0.00 0.00 0.00 60 1015.2
20260903044036 25 198 0.0 0.0 0.00 0.00 0.00 60 1015.3
20260903043539 25 198 0.0 0.0 0.00 0.00 0.00 61 1015.2
20260903043035 25 198 0.0 0.0 0.00 0.00 0.00 61 1015.2
20260903042535 25 198 0.0 0.0 0.00 0.00 0.00 61 1015.2
20260903042035 25 198 0.0 0.0 0.00 0.00 0.00 61 1015.2
20260903041542 25 198 0.0 0.0 0.00 0.00 0.00 61 1015.2
20260903041033 25 198 0.0 0.0 0.00 0.00 0.00 61 1015.2
20260903040532 25 198 0.0 0.0 0.00 0.00 0.00 61 1015.2
20260903040031 25 198 0.0 0.0 0.00 0.00 0.00 61 1015.2
20260903035533 25 198 0.0 0.0 0.00 0.00 0.00 61 1015.2
20260903035031 25 198 0.0 0.0 0.00 0.00 0.00 61 1015.2
20260903034536 25 198 0.0 0.0 0.00 0.00 0.00 61 1015.2
20260903034031 25 199 0.0 0.0 0.00 0.00 0.00 61 1015.2
20260903033530 25 199 0.0 0.0 0.00 0.00 0.00 61 1015.2
20260903033032 25 199 0.0 0.0 0.00 0.00 0.00 61 1015.2
20260903032532 25 199 0.0 0.0 0.00 0.00 0.00 61 1015.2
20260903032030 25 199 0.0 0.0 0.00 0.00 0.00 62 1015.2
20260903031535 25 203 0.0 0.0 0.00 0.00 0.00 62 1015.2
20260903031030 25 203 0.0 0.0 0.00 0.00 0.00 62 1015.2
20260903030530 25 203 0.0 0.0 0.00 0.00 0.00 62 1015.2
20260903030031 25 203 0.0 0.0 0.00 0.00 0.00 62 1015.2
20260903025532 25 204 0.0 0.0 0.00 0.00 0.00 62 1015.2
20260903025029 25 204 0.0 0.0 0.00 0.00 0.00 62 1015.2
20260903024529 25 205 0.0 0.0 0.00 0.00 0.00 62 1015.2
20260903024033 25 205 0.0 0.0 0.00 0.00 0.00 62 1015.3
20260903023535 25 205 0.0 0.0 0.00 0.00 0.00 63 1015.3
20260903023032 25 205 0.0 0.0 0.00 0.00 0.00 62 1015.3
20260903022528 25 211 0.0 0.0 0.00 0.00 0.00 62 1015.3
20260903022028 25 211 0.0 0.0 0.00 0.00 0.00 62 1015.3
20260903021528 25 211 0.0 0.0 0.00 0.00 0.00 62 1015.3
20260903021029 25 211 0.0 0.0 0.00 0.00 0.00 62 1015.3
20260903020529 25 211 0.0 0.0 0.00 0.00 0.00 62 1015.3
20260903020054 26 211 0.0 0.0 0.00 0.00 0.00 62 1015.3
20260903015528 26 211 0.0 0.0 0.00 0.00 0.00 62 1015.2
20260903015027 26 211 0.0 0.0 0.00 0.00 0.00 62 1015.2
20260903014527 26 211 0.0 0.0 0.00 0.00 0.00 61 1015.3
20260903014028 26 211 0.0 0.0 0.00 0.00 0.00 60 1015.2
20260903013527 27 211 0.0 0.0 0.00 0.00 0.00 59 1015.2
20260903013026 27 211 0.0 0.0 0.00 0.00 0.00 59 1015.1
20260903012526 27 211 0.0 0.0 0.00 0.00 0.00 60 1015.1
20260903012029 27 211 0.0 0.0 0.00 0.00 0.00 59 1015.0
20260903011526 27 211 0.0 0.0 0.00 0.00 0.00 58 1014.9
20260903011025 27 211 0.0 0.0 0.00 0.00 0.00 57 1014.9
20260903010525 27 211 0.0 0.0 0.00 0.00 0.00 58 1014.8
20260903010026 28 211 0.0 0.0 0.00 0.00 0.00 58 1014.8
20260903005524 28 211 0.0 0.0 0.00 0.00 0.00 57 1014.8
20260903005028 28 211 0.0 0.0 0.00 0.00 0.00 57 1014.8
20260903004525 28 211 0.0 0.0 0.00 0.00 0.00 56 1014.8
20260903004028 29 211 0.0 0.0 0.00 0.00 0.00 55 1014.7
20260903003525 29 211 0.0 0.0 0.00 0.00 0.00 55 1014.7
20260903003024 30 211 0.0 0.0 0.00 0.00 0.00 54 1014.7
20260903002524 30 211 0.0 0.0 0.00 0.00 0.00 53 1014.7
20260903002026 30 211 0.0 0.0 0.00 0.00 0.00 50 1014.7
20260903001532 31 211 0.0 0.0 0.00 0.00 0.00 51 1014.7
20260903001023 31 211 0.0 0.0 0.00 0.00 0.00 49 1014.6
20260903000523 31 211 0.0 0.0 0.00 0.00 0.00 48 1014.6
20260903000023 31 211 0.0 0.0 0.00 0.00 0.00 48 1014.6
20260902235527 32 211 0.0 0.0 0.00 0.00 0.00 47 1014.7
20260902235023 32 211 0.0 0.0 0.00 0.00 0.00 46 1014.7
20260902234523 33 211 0.0 0.0 0.00 0.00 0.00 46 1014.7
20260902234027 33 211 0.0 0.0 0.00 0.00 0.00 45 1014.7
20260902233522 33 211 0.0 0.0 0.00 0.00 0.00 42 1014.7
20260902233022 34 211 0.0 0.0 0.00 0.00 0.00 43 1014.7
20260902232525 34 211 0.0 0.0 0.00 0.00 0.00 42 1014.7
20260902232020 35 211 0.0 0.0 0.00 0.00 0.00 39 1014.7
20260902231520 35 211 0.0 0.0 0.00 0.00 0.00 36 1014.7
20260902231020 35 211 0.0 0.0 0.00 0.00 0.00 36 1014.8
20260902230519 35 211 0.0 0.0 0.00 0.00 0.00 35 1014.8
20260902230018 36 211 0.0 0.0 0.00 0.00 0.00 34 1014.9
20260902225519 36 211 0.0 0.0 0.00 0.00 0.00 34 1014.9
20260902225021 35 211 0.0 0.0 0.00 0.00 0.00 34 1014.9
20260902224519 35 211 0.0 0.0 0.00 0.00 0.00 34 1014.9
20260902224020 36 211 0.0 0.0 0.00 0.00 0.00 33 1014.9
20260902223516 36 211 0.0 0.0 0.00 0.00 0.00 33 1015.0
20260902223017 35 211 0.0 0.0 0.00 0.00 0.00 34 1015.0
20260902222518 35 211 0.0 0.0 0.00 0.00 0.00 35 1015.0
20260902222017 35 211 0.0 1.6 0.00 0.00 0.00 35 1015.1
20260902221532 35 211 0.0 1.6 0.00 0.00 0.00 34 1015.1
20260902221017 36 223 0.0 0.0 0.00 0.00 0.00 34 1015.2
20260902220515 35 224 0.0 0.0 0.00 0.00 0.00 34 1015.2
20260902220013 35 228 0.0 0.0 0.00 0.00 0.00 35 1015.2
20260902215516 35 261 0.0 0.0 0.00 0.00 0.00 36 1015.2
20260902215013 35 273 0.0 0.0 0.00 0.00 0.00 35 1015.2
20260902214514 35 268 0.0 0.0 0.00 0.00 0.00 34 1015.2
20260902214014 35 181 0.0 0.0 0.00 0.00 0.00 34 1015.2
20260902213514 35 171 0.0 0.0 0.00 0.00 0.00 33 1015.2
20260902213013 35 214 0.0 1.6 0.00 0.00 0.00 34 1015.2
20260902212511 35 211 0.0 1.6 0.00 0.00 0.00 34 1015.3
20260902212011 35 205 0.0 0.0 0.00 0.00 0.00 33 1015.3
20260902211511 36 271 0.0 0.0 0.00 0.00 0.00 33 1015.4
20260902211011 36 240 0.0 0.0 0.00 0.00 0.00 32 1015.4
20260902210513 36 269 0.0 0.0 0.00 0.00 0.00 32 1015.4
20260902210010 36 184 0.0 0.0 0.00 0.00 0.00 33 1015.4
20260902205509 35 209 0.0 1.6 0.00 0.00 0.00 33 1015.5
20260902205009 36 225 0.0 1.6 0.00 0.00 0.00 32 1015.5
20260902204510 35 335 0.0 0.0 0.00 0.00 0.00 35 1015.4
20260902204007 35 265 0.0 0.0 0.00 0.00 0.00 35 1015.5
20260902203506 35 289 0.0 0.0 0.00 0.00 0.00 36 1015.5
20260902203007 35 284 0.0 0.0 0.00 0.00 0.00 34 1015.6
20260902202505 36 276 0.0 0.0 0.00 0.00 0.00 34 1015.7
20260902202004 35 314 0.0 0.0 0.00 0.00 0.00 35 1015.8
20260902201505 35 289 0.0 0.0 0.00 0.00 0.00 34 1015.8
20260902201004 35 219 0.0 0.0 0.00 0.00 0.00 35 1015.8
20260902200504 34 219 0.0 0.0 0.00 0.00 0.00 35 1016.0
20260902200002 34 247 0.0 0.0 0.00 0.00 0.00 37 1016.1
20260902195504 35 267 0.0 0.0 0.00 0.00 0.00 35 1016.2
20260902195002 35 232 0.0 1.6 0.00 0.00 0.00 35 1016.2
20260902194501 34 171 0.0 1.6 0.00 0.00 0.00 36 1016.2
20260902194002 35 248 0.0 0.0 0.00 0.00 0.00 36 1016.3
20260902193603 35 240 0.0 0.0 0.00 0.00 0.00 34 1016.2
20260902193101 35 278 0.0 0.0 0.00 0.00 0.00 34 1016.3
20260902192559 35 330 0.0 0.0 0.00 0.00 0.00 35 1016.3
20260902192059 34 260 0.0 0.0 0.00 0.00 0.00 36 1016.3
20260902191605 34 302 0.0 0.0 0.00 0.00 0.00 35 1016.5
20260902191058 34 294 0.0 0.0 0.00 0.00 0.00 34 1016.6
20260902190601 35 290 0.0 0.0 0.00 0.00 0.00 33 1016.6
20260902190059 35 199 0.0 0.0 0.00 0.00 0.00 35 1016.6
20260902185558 35 180 0.0 0.0 0.00 0.00 0.00 36 1016.6
20260902185100 35 188 0.0 0.0 0.00 0.00 0.00 35 1016.7
20260902184558 35 188 0.0 0.0 0.00 0.00 0.00 37 1016.8
20260902184057 35 225 0.0 0.0 0.00 0.00 0.00 36 1016.8
20260902183556 35 176 0.0 1.6 0.00 0.00 0.00 37 1016.8